Location: Maccacari
(45.1333°N, 11.1333°E)
Time: 18:26:31
(UTC+00:00)

USA 234 - Pass Details

Date: 24 January 2021
Orbit: 1100 x 1107 km, 123.0° (Epoch: 01 March)

Event Time Altitude Azimuth Distance (km) Brightness Sun altitude
Exits shadow 19:16:49 45° 0° (N) 1,470 3.8 -32.4°
Drops below altitude 10° 19:22:06 10° 313° (NW) 2,967 6.1 -33.4°
Sets 19:24:40 0° 308° (NW) 3,927 6.9 -33.8°
